{"data":{"norad_id":40970,"epoch":"2026-09-18T18:32:30.073056Z","epoch_age_seconds":163549,"freshness":"FRESH","line1":"1 40970U 15058G   26261.77257029  .09547151  76228-5  12533-2 0  9993","line2":"2 40970  64.7226 132.5987 0014295 258.2988 101.6590 16.34842781131637","mean_motion":16.34842781,"eccentricity":0.0014295,"inclination_deg":64.7226,"raan_deg":132.5987,"arg_perigee_deg":258.2988,"mean_anomaly_deg":101.659,"bstar":0.0012533,"rev_number":13163,"period_min":88.081864307416,"perigee_km":170.18324799138,"apogee_km":188.93169648752001,"semimajor_km":6557.6944722394,"source":"CELESTRAK","updated_at":"2026-09-19T09:02:02.589824Z"}}